Regional Weather Roundup
Issued by NWS Charleston, WV

Home | Current Version | Previous Version | Graphics & Text | Print | Product List | Glossary On
Versions: 1 2 3 4 5 6 7 8 9 10 11 12 13 14 15 16 17 18 19 20 21 22 23 24 25 26 27 28 29 30 31 32 33 34 35 36 37 38 39 40 41 42 43 44 45 46 47 48 49 50
819
ASUS41 KRLX 080810
RWRRLX
West Virginia Regional Weather Roundup
National Weather Service Charleston WV
300 AM EST THU DEC 08 2016

Note: "fair" indicates few or no clouds below 12,000 feet with no
significant weather and/or obstructions to visibility.

WVZ003-080900-
Northern Panhandle of West Virginia

CITY           SKY/WX    TMP DP  RH WIND       PRES   REMARKS
WHEELING       CLOUDY    32  22  66 W9        30.06S
$$

WVZ009-080900-
Northwest West Virginia

CITY           SKY/WX    TMP DP  RH WIND       PRES   REMARKS
PARKERSBURG    CLOUDY    35  22  58 W5        30.13F
$$

WVZ006-080900-
Western West Virginia

CITY           SKY/WX    TMP DP  RH WIND       PRES   REMARKS
HUNTINGTON     CLOUDY    36  24  62 SW5       30.14S
$$

WVZ015-080900-
West Central West Virginia

CITY           SKY/WX    TMP DP  RH WIND       PRES   REMARKS
CHARLESTON     CLOUDY    33  29  85 SW3       30.13R
$$

WVZ022-031-080900-
North Central West Virginia

CITY           SKY/WX    TMP DP  RH WIND       PRES   REMARKS
CLARKSBURG     CLOUDY    33  26  75 S3        30.08S
MORGANTOWN     CLOUDY    33  24  69 S3        30.08S
$$

WVZ025-035-042-045-080900-
Southern West Virginia

CITY           SKY/WX    TMP DP  RH WIND       PRES   REMARKS
BECKLEY        MOCLDY    29  23  78 W3        30.06S
LOGAN          CLOUDY    34  28  80 CALM      30.10S
BLUEFIELD      CLOUDY    31  25  78 W7        30.06R
LEWISBURG      PTCLDY    30  24  77 CALM      30.05S
$$

WVZ047-080900-
Northern Mountains of West Virginia

CITY           SKY/WX    TMP DP  RH WIND       PRES   REMARKS
ELKINS         CLOUDY    28  24  85 CALM      30.07R
$$

WVZ052-080900-
Eastern Panhandle of West Virginia

CITY           SKY/WX    TMP DP  RH WIND       PRES   REMARKS
MARTINSBURG    CLOUDY    28  24  85 CALM      30.05R
PETERSBURG     CLOUDY    29  27  92 CALM      30.06S
$$




USA.gov is the U.S. government's official web portal to all federal, state and local government web resources and services.